Fort Dodge
Tuesday 10:56 PM
Temperature62° (75°/47°)
Dew Point51°
Relative Humidity67
%
Visibility10
mi
Pressure1019.6
mb
Wind Direction
Wind Speed3
mph
Precipitation Today0.00"

Terminal Aerodrome Forecast

715 
FTUS43 KDMX 042324
TAFFOD
TAF
KFOD 042324Z 0500/0524 18009KT P6SM BKN050=

Last 30 Observations

Time PresWx Temp DP Feels RH% Vsby Pressure Ceiling Direction Speed 1h Precip
10:56 PM 62° 51° 67
%
10
mi
1019.7
mb
6,500
ft
SSE
150°
3
mph
0.00"
9:56 PM 64° 50° 60
%
10
mi
1019.7
mb
S
170°
3
mph
0.00"
8:56 PM 62° 51° 67
%
10
mi
1019.0
mb
SE
130°
5
mph
0.00"
7:56 PM 69° 49° 49
%
10
mi
1019.0
mb
SE
130°
5
mph
0.00"
6:56 PM 73° 48° 72°41
%
10
mi
1019.3
mb
ESE
110°
6
mph
0.00"
5:56 PM 74° 48° 73°40
%
10
mi
1019.7
mb
NE
50°
6
mph
0.00"
4:56 PM 72° 49° 71°44
%
10
mi
1020.3
mb
6,500
ft
ENE
70°
6
mph
0.00"
3:56 PM 75° 48° 74°38
%
10
mi
1020.7
mb
E
100°
8
mph
0.00"
2:56 PM 74° 48° 73°40
%
10
mi
1021.0
mb
ENE
70°
7
mph
0.00"
1:56 PM 73° 48° 72°41
%
10
mi
1021.7
mb
Calm 0.00"
12:56 PM 71° 47° 70°42
%
10
mi
1021.7
mb
Calm 0.00"
11:56 AM 71° 47° 70°42
%
10
mi
1022.0
mb
NE
40°
7
mph
0.00"
10:56 AM 68° 47° 47
%
10
mi
1022.4
mb
NNE
30°
6
mph
0.00"
9:56 AM 65° 48° 54
%
10
mi
1022.4
mb
Calm 0.00"
8:56 AM 62° 51° 67
%
10
mi
1022.7
mb
E
100°
3
mph
0.00"
7:56 AM 54° 51° 90
%
10
mi
1022.4
mb
Calm 0.00"
6:56 AM 49° 47° 93
%
10
mi
1021.7
mb
Calm 0.00"
5:56 AM 49° 48° 97
%
10
mi
1021.3
mb
Calm 0.00"
4:56 AM 49° 48° 97
%
10
mi
1021.0
mb
Calm 0.00"
3:56 AM 50° 49° 96
%
10
mi
1021.0
mb
Calm 0.00"
2:56 AM 51° 50° 96
%
10
mi
1021.3
mb
Calm 0.00"
1:56 AM 56° 53° 90
%
10
mi
1022.0
mb
6,000
ft
Calm 0.00"
12:56 AM 56° 52° 87
%
10
mi
1022.0
mb
7,000
ft
Calm 0.00"
11:56 PM 57° 52° 83
%
10
mi
1022.0
mb
6,500
ft
ENE
60°
3
mph
0.00"
10:56 PM 56° 52° 87
%
10
mi
1021.7
mb
6,000
ft
E
90°
3
mph
0.00"
9:56 PM 58° 52° 81
%
10
mi
1021.0
mb
ENE
70°
5
mph
0.00"
8:56 PM 64° 54° 70
%
10
mi
1020.3
mb
5,500
ft
NE
50°
5
mph
0.00"
7:56 PM 67° 53° 61
%
10
mi
1020.3
mb
NE
50°
5
mph
0.00"
6:56 PM 70° 52° 53
%
10
mi
1020.0
mb
NE
40°
7
mph
0.00"
5:56 PM 72° 53° 71°51
%
10
mi
1020.3
mb
ENE
70°
7
mph
0.00"